Weather History for Havre, MT

Change the Weather History Date:

Thursday, November 29, 2012

  Actual Average Record
Temperature  
Mean Temperature 26 °F 24 °F  
Max Temperature 30 °F 35 °F 65 °F (1909)
Min Temperature 21 °F 13 °F -30 °F (1896)
Degree Days  
Heating Degree Days 39 41  
Month to date heating degree days 1021 1003  
Since 1 July heating degree days 1948 2002  
Cooling Degree Days 0 0  
Month to date cooling degree days 0 0  
Year to date cooling degree days 507 387  
Moisture  
Dew Point 21 °F    
Average Humidity 89    
Maximum Humidity 96    
Minimum Humidity 81    
Precipitation  
Precipitation 0.00 in 0.02 in 0.26 in (1922)
Month to date precipitation 0.90 0.42  
Year to date precipitation 12.39 10.79  
Snow  
Snow 0.00 in 0.30 in 3.40 in (1984)
Month to date snowfall 16.5 5.1  
Since 1 July snowfall 18.0 7.4  
Since 1 September snowfall 18.0 7.4  
Snow Depth 0.00 in    
Sea Level Pressure  
Sea Level Pressure 29.90 in    
Wind  
Wind Speed 7 mph (ENE)    
Max Wind Speed 17 mph    
Max Gust Speed 21 mph    
Visibility 7 miles    
Events      
T = Trace of Precipitation, MM = Missing Value Source: NWS Daily Summary

Daily Weather History Graph

Daily Weather History Graph

Search for Another Location

Airport:

Trip Planner

Search our weather history database for the weather conditions in past years. The results will help you decide how hot, cold, wet, or windy it might be!

Date:

Astronomy

Nov. 29, 2012 Rise Set
Actual Time 7:48 AM MST 4:26 PM MST
Civil Twilight 7:12 AM MST 5:02 PM MST
Nautical Twilight 6:32 AM MST 5:41 PM MST
Astronomical Twilight 5:55 AM MST 6:19 PM MST
Moon 5:32 PM MST (11/29) 8:38 AM MST (11/29)
Length of Visible Light 9h 50m
Length of Day
8h 38m
Full, 99% of the Moon is Illuminated
Nov 29
Full
Dec 6
Last Quarter
Dec 13
New
Dec 19
First Quarter
Dec 28
Full

Hourly Weather History & Observations

Time (MST) Temp. Windchill Dew Point Humidity Pressure Visibility Wind Dir Wind Speed Gust Speed Precip Events Conditions
12:53 AM 21.9 °F 11.0 °F 19.0 °F 89% 29.95 in 10.0 mi NE 10.4 mph - N/A   Overcast
1:53 AM 21.0 °F 8.6 °F 19.0 °F 92% 29.94 in 7.0 mi ENE 12.7 mph - N/A   Overcast
2:34 AM 21.2 °F 7.3 °F 19.4 °F 93% 29.83 in 6.0 mi East 16.1 mph - N/A   Overcast
2:53 AM 21.0 °F 9.3 °F 19.9 °F 96% 29.94 in 6.0 mi ENE 11.5 mph - N/A   Overcast
3:53 AM 21.0 °F 10.6 °F 19.0 °F 92% 29.94 in 6.0 mi ENE 9.2 mph - N/A   Overcast
4:53 AM 21.0 °F 9.3 °F 19.0 °F 92% 29.94 in 7.0 mi East 11.5 mph - N/A   Overcast
5:08 AM 21.2 °F 10.1 °F 19.4 °F 93% 29.84 in 6.0 mi East 10.4 mph - N/A   Overcast
5:22 AM 21.2 °F 11.7 °F 19.4 °F 93% 29.83 in 6.0 mi East 8.1 mph - N/A   Overcast
5:34 AM 21.2 °F 11.7 °F 19.4 °F 93% 29.83 in 6.0 mi East 8.1 mph - N/A   Overcast
5:53 AM 21.0 °F 11.4 °F 19.0 °F 92% 29.93 in 6.0 mi ENE 8.1 mph - N/A   Overcast
6:12 AM 21.2 °F 10.9 °F 19.4 °F 93% 29.82 in 6.0 mi ENE 9.2 mph - N/A   Overcast
6:53 AM 21.9 °F 13.4 °F 19.0 °F 89% 29.92 in 6.0 mi NE 6.9 mph - N/A   Overcast
7:53 AM 21.0 °F 13.4 °F 19.0 °F 92% 29.94 in 6.0 mi East 5.8 mph - N/A   Scattered Clouds
8:53 AM 21.2 °F 13.6 °F 19.4 °F 93% 29.84 in 4.0 mi East 5.8 mph - N/A   Clear
9:53 AM 23.0 °F 17.0 °F 19.9 °F 88% 29.95 in 5.0 mi ENE 4.6 mph - N/A   Clear
10:53 AM 24.1 °F 18.2 °F 21.0 °F 88% 29.95 in 6.0 mi ENE 4.6 mph - N/A   Clear
11:53 AM 26.1 °F 19.4 °F 21.9 °F 84% 29.95 in 7.0 mi ENE 5.8 mph - N/A   Clear
12:21 PM 26.6 °F 19.1 °F 21.2 °F 80% 29.85 in 6.0 mi ENE 6.9 mph - N/A   Partly Cloudy
12:53 PM 27.0 °F 18.7 °F 23.0 °F 85% 29.94 in 6.0 mi ENE 8.1 mph - N/A   Clear
1:53 PM 28.9 °F 21.1 °F 24.1 °F 82% 29.93 in 7.0 mi East 8.1 mph - N/A   Clear
2:53 PM 28.9 °F 21.1 °F 24.1 °F 82% 29.92 in 8.0 mi NE 8.1 mph - N/A   Clear
3:53 PM 28.9 °F 21.9 °F 25.0 °F 85% 29.92 in 8.0 mi ENE 6.9 mph - N/A   Clear
4:53 PM 26.1 °F 16.2 °F 23.0 °F 88% 29.90 in 9.0 mi East 10.4 mph - N/A   Clear
5:53 PM 25.0 °F 15.5 °F 21.9 °F 88% 29.90 in 9.0 mi ENE 9.2 mph - N/A   Clear
6:53 PM 25.0 °F 14.8 °F 21.9 °F 88% 29.89 in 9.0 mi East 10.4 mph - N/A   Clear
7:53 PM 25.0 °F 19.3 °F 21.9 °F 88% 29.88 in 8.0 mi ENE 4.6 mph - N/A   Clear
8:53 PM 24.1 °F 19.7 °F 21.9 °F 91% 29.88 in 7.0 mi ENE 3.5 mph - N/A   Clear
9:53 PM 23.0 °F - 21.0 °F 92% 29.86 in 6.0 mi Calm Calm - N/A   Clear
10:53 PM 23.0 °F - 19.9 °F 88% 29.85 in 6.0 mi Calm Calm - N/A   Scattered Clouds
11:53 PM 25.0 °F - 21.9 °F 88% 29.82 in 7.0 mi Calm Calm - N/A   Clear